(231715) = 1999 AB14 = 2003 FQ26

Discovered at Kitt Peak on 1999-01-08 by Spacewatch.

Orbit

Orbit type: Main Belt

Note: WebGL enabled browser required.

epoch2023-09-13.0
epoch JD2460200.5
perihelion date2021-07-28.12611
perihelion JD2459423.62611
argument of perihelion (°)119.44720
ascending node (°)102.57355
inclination (°)2.37998
eccentricity0.1384060
perihelion distance (AU)2.0276066
Tisserand w.r.t. Jupiter3.5
ΔV w.r.t. Earth (km/sec)8.9
semimajor axis (AU)2.3533203
mean anomaly (°)212.09616
mean daily motion (°/day)0.27301230
aphelion distance (AU)2.679
period (years)3.61
P-vector [x]-0.74216936
P-vector [y]-0.62839640
P-vector [z]-0.23302920
Q-vector [x]0.66898574
Q-vector [y]-0.67356368
Q-vector [z]-0.31427703
absolute magnitude17.75
phase slope0.15
uncertainty0
referenceMPEC 2024-A48
observations used226
oppositions15
arc length (days)10119
first opposition used1996
last opposition used2024
residual rms (arc-secs)0.79
perturbers coarse indicatorM-v
perturbers precise indicator003Ek
first observation date used1996-04-20.0
last observation date used2024-01-03.0
computer nameMPCLINUX
JD of orbit computation2456847.793666
perihelion JD uncertainty (days)5.7698E-05
argument of perihelion uncertainty (°)1.1633E-04
ascending node uncertainty (°)1.1483E-04
inclination uncertainty (°)3.6233E-06
eccentricity uncertainty 4.2922E-08
perihelion distance uncertainty (AU)1.0007E-07
Minimum Orbit Intersection Distances (in AU)
for orbit epoch: 2460200.5, reference: E2024-A48
Mercury1.57496
Venus1.30422
Earth1.01933
Mars0.42733
Jupiter2.29024
Saturn6.44332
Uranus16.238
Neptune27.1644

Observations

231 total observations over interval: 1996 04 20.38626 – 2024 01 03.330951
These data are available for download (format description).

Date (UT) J2000 RA J2000 Dec Magn Location Ref
1996 04 20.38626 15 23 33.88 -14 28 28.8   691 – Steward Observatory, Kitt Peak-Spacewatch MPS 81338
1996 04 20.41393 15 23 32.85 -14 28 29.2 19.7 V 691 – Steward Observatory, Kitt Peak-Spacewatch MPS 81338
1996 04 20.43555 15 23 31.69 -14 28 21.1   691 – Steward Observatory, Kitt Peak-Spacewatch MPS 81338
1996 05 12.29516 15 04 37.50 -13 25 44.2 19.9 V 691 – Steward Observatory, Kitt Peak-Spacewatch MPS 81338
1996 05 12.31730 15 04 36.19 -13 25 40.7   691 – Steward Observatory, Kitt Peak-Spacewatch MPS 81338
1996 05 12.33891 15 04 34.92 -13 25 37.5   691 – Steward Observatory, Kitt Peak-Spacewatch MPS 81338
1999 01 08.19785 08 23 36.94 +20 21 01.0 21.2 V 691 – Steward Observatory, Kitt Peak-Spacewatch MPS 3672
1999 01 08.22003 08 23 35.65 +20 21 06.7 20.8 V 691 – Steward Observatory, Kitt Peak-Spacewatch MPS 3672
1999 01 08.24237 08 23 34.36 +20 21 13.2 21.4 V 691 – Steward Observatory, Kitt Peak-Spacewatch MPS 3672
1999 01 15.29632 08 16 27.89 +20 53 24.4 21.2 V 691 – Steward Observatory, Kitt Peak-Spacewatch MPS 3672
1999 01 15.31856 08 16 26.40 +20 53 30.5 21.2 V 691 – Steward Observatory, Kitt Peak-Spacewatch MPS 3672
1999 01 15.34087 08 16 24.94 +20 53 36.5 21.3 V 691 – Steward Observatory, Kitt Peak-Spacewatch MPS 3672
2003 03 08.08815 12 34 21.23 +00 54 23.3 19.6   615 – St. Veran MPS 178174
2003 03 08.09694 12 34 20.85 +00 54 26.4 19.7   615 – St. Veran MPS 178174
2003 03 08.10539 12 34 20.51 +00 54 28.8 19.4   615 – St. Veran MPS 178174
2003 03 24.28161 12 21 29.64 +02 35 12.5 19.8 V 691 – Steward Observatory, Kitt Peak-Spacewatch MPS 76314
2003 03 24.30945 12 21 28.05 +02 35 23.6 19.7 V 691 – Steward Observatory, Kitt Peak-Spacewatch MPS 76314
2003 03 24.33699 12 21 26.50 +02 35 33.9 19.7 V 691 – Steward Observatory, Kitt Peak-Spacewatch MPS 76314
2003 03 26.28714 12 19 41.51 +02 47 49.2 19.4   644 – Palomar Mountain/NEAT MPS 76314
2003 03 26.30818 12 19 40.34 +02 47 57.1 19.5   644 – Palomar Mountain/NEAT MPS 76314
2003 03 26.34276 12 19 38.35 +02 48 09.8 19.6   644 – Palomar Mountain/NEAT MPS 76314
2004 09 10.34816 23 44 51.71 -05 38 21.9 20.9 V 691 – Steward Observatory, Kitt Peak-Spacewatch MPS 178174
2004 09 10.37715 23 44 50.06 -05 38 33.6 21.0 V 691 – Steward Observatory, Kitt Peak-Spacewatch MPS 178174
2004 09 10.40889 23 44 48.26 -05 38 45.6 21.1 V 691 – Steward Observatory, Kitt Peak-Spacewatch MPS 178174
2008 09 23.45316 02 33 59.85 +11 31 10.6 21.5 V 691 – Steward Observatory, Kitt Peak-Spacewatch MPS 256494
2008 09 23.47078 02 33 59.29 +11 31 06.9 21.3 V 691 – Steward Observatory, Kitt Peak-Spacewatch MPS 256494
2008 09 23.48843 02 33 58.74 +11 31 03.8 21.5 V 691 – Steward Observatory, Kitt Peak-Spacewatch MPS 256494
2008 10 06.36610 02 25 44.82 +10 42 38.3 21.3 V 691 – Steward Observatory, Kitt Peak-Spacewatch MPS 259064
2008 10 06.38372 02 25 44.01 +10 42 33.5 20.9 V 691 – Steward Observatory, Kitt Peak-Spacewatch MPS 259064
2008 10 06.40135 02 25 43.11 +10 42 29.1 21.2 V 691 – Steward Observatory, Kitt Peak-Spacewatch MPS 259064
2008 10 23.34095 02 10 22.47 +09 21 44.9 21.4 V G96 – Mt. Lemmon Survey MPS 260474
2008 10 23.34807 02 10 22.04 +09 21 43.3 20.9 V G96 – Mt. Lemmon Survey MPS 260474
2008 10 23.35524 02 10 21.57 +09 21 40.8 20.6 V G96 – Mt. Lemmon Survey MPS 260474
2008 10 23.36232 02 10 21.14 +09 21 38.5 21.1 V G96 – Mt. Lemmon Survey MPS 260474
2010 01 11.38912 10 19 02.76 +12 39 13.4 21.0 V 691 – Steward Observatory, Kitt Peak-Spacewatch MPS 310110
2010 01 11.40684 10 19 02.51 +12 39 16.2 21.1 V 691 – Steward Observatory, Kitt Peak-Spacewatch MPS 310110
2010 01 11.42459 10 19 02.18 +12 39 19.9 21.2 V 691 – Steward Observatory, Kitt Peak-Spacewatch MPS 310110
2010 02 11.367699 09 58 45.293 +15 22 25.50 21.33 g F51 – Pan-STARRS 1, Haleakala MPS 338847
2010 02 11.378059 09 58 44.678 +15 22 29.51 21.19 g F51 – Pan-STARRS 1, Haleakala MPS 338847
2010 02 13.356720 09 56 47.497 +15 35 19.05 20.99 g F51 – Pan-STARRS 1, Haleakala MPS 338847
2010 02 13.366714 09 56 46.867 +15 35 23.01 21.22 g F51 – Pan-STARRS 1, Haleakala MPS 338847
2010 02 15.25486 09 54 53.42 +15 47 30.5 20.1 V 703 – Catalina Sky Survey MPS 312922
2010 02 15.26394 09 54 52.88 +15 47 34.2 20.7 V 703 – Catalina Sky Survey MPS 312922
2010 02 15.27317 09 54 52.27 +15 47 38.9 20.3 V 703 – Catalina Sky Survey MPS 312922
2010 02 15.28251 09 54 51.84 +15 47 42.1 20.1 V 703 – Catalina Sky Survey MPS 312922
2010 02 15.43692 09 54 42.08 +15 48 40.6 20.3 V G96 – Mt. Lemmon Survey MPS 312922
2010 02 15.44336 09 54 41.65 +15 48 43.0 20.2 V G96 – Mt. Lemmon Survey MPS 312922
2010 02 15.44987 09 54 41.25 +15 48 45.5 20.1 V G96 – Mt. Lemmon Survey MPS 312922
2010 02 15.45633 09 54 40.86 +15 48 47.9 20.1 V G96 – Mt. Lemmon Survey MPS 312922
2010 02 16.15276 09 53 59.47 +15 53 14.2 20.4 V 691 – Steward Observatory, Kitt Peak-Spacewatch MPS 312922
2010 02 16.17046 09 53 58.36 +15 53 21.1 20.0 V 691 – Steward Observatory, Kitt Peak-Spacewatch MPS 312922
2010 02 16.18816 09 53 57.28 +15 53 27.9 20.3 V 691 – Steward Observatory, Kitt Peak-Spacewatch MPS 312922
2010 02 16.25827 09 53 52.90 +15 53 54.7 20.1 V G96 – Mt. Lemmon Survey MPS 312922
2010 02 16.26415 09 53 52.54 +15 53 56.7 20.3 V G96 – Mt. Lemmon Survey MPS 312922
2010 02 16.27002 09 53 52.18 +15 53 59.4 20.2 V G96 – Mt. Lemmon Survey MPS 312922
2010 02 16.27590 09 53 51.79 +15 54 01.6 20.3 V G96 – Mt. Lemmon Survey MPS 312922
2010 02 20.18192 09 49 55.86 +16 18 20.6 20.4 V 691 – Steward Observatory, Kitt Peak-Spacewatch MPS 312922
2010 02 20.19965 09 49 54.83 +16 18 27.4 20.6 V 691 – Steward Observatory, Kitt Peak-Spacewatch MPS 312922
2010 02 20.21737 09 49 53.70 +16 18 33.5 21.0 V 691 – Steward Observatory, Kitt Peak-Spacewatch MPS 312922
2011 08 18.51834 22 02 52.72 -15 00 28.9 19.6 R F65 – Haleakala-Faulkes Telescope North MPS 388579
2011 08 18.52656 22 02 52.23 -15 00 31.8 19.7 R F65 – Haleakala-Faulkes Telescope North MPS 388579
2011 08 30.41158 21 51 38.233 -16 06 36.61 21.4 w F51 – Pan-STARRS 1, Haleakala MPS 390358
2011 08 30.42634 21 51 37.394 -16 06 40.91 21.4 w F51 – Pan-STARRS 1, Haleakala MPS 390358
2011 08 30.44107 21 51 36.569 -16 06 45.44 21.5 w F51 – Pan-STARRS 1, Haleakala MPS 390358
2011 08 30.45586 21 51 35.737 -16 06 49.70 21.5 w F51 – Pan-STARRS 1, Haleakala MPS 390358
2014 03 08.49708 14 50 52.65 -12 34 31.4 21.4 V G96 – Mt. Lemmon Survey MPS 506157
2014 03 08.50432 14 50 52.84 -12 34 32.1 20.5 V G96 – Mt. Lemmon Survey MPS 506157
2014 03 08.51156 14 50 53.03 -12 34 32.0 20.6 V G96 – Mt. Lemmon Survey MPS 506157
2014 03 08.51880 14 50 53.23 -12 34 32.2 20.5 V G96 – Mt. Lemmon Survey MPS 506157
2014 04 05.53772 14 50 37.720 -11 58 46.40 20.0 w F51 – Pan-STARRS 1, Haleakala MPS 510848
2014 04 05.54827 14 50 37.386 -11 58 44.48 20.1 w F51 – Pan-STARRS 1, Haleakala MPS 510848
2014 04 05.55884 14 50 37.047 -11 58 42.58 20.1 w F51 – Pan-STARRS 1, Haleakala MPS 510848
2014 04 09.34910 14 48 34.78 -11 46 50.7 20.1 V 691 – Steward Observatory, Kitt Peak-Spacewatch MPS 510848
2014 04 09.36684 14 48 34.10 -11 46 46.9 20.3 V 691 – Steward Observatory, Kitt Peak-Spacewatch MPS 510848
2014 04 09.38455 14 48 33.43 -11 46 43.3 20.2 V 691 – Steward Observatory, Kitt Peak-Spacewatch MPS 510848
2014 04 23.27669 14 38 02.70 -10 55 15.8 19.6 V W84 – Cerro Tololo-DECam MPS 788868
2014 04 23.27992 14 38 02.52 -10 55 15.0   W84 – Cerro Tololo-DECam MPS 788868
2014 04 23.28310 14 38 02.34 -10 55 14.2   W84 – Cerro Tololo-DECam MPS 788868
2014 04 23.28628 14 38 02.16 -10 55 13.5   W84 – Cerro Tololo-DECam MPS 788868
2014 04 23.28948 14 38 01.99 -10 55 12.8   W84 – Cerro Tololo-DECam MPS 788868
2014 04 26.20108 14 35 25.53 -10 43 53.4 19.4 V W84 – Cerro Tololo-DECam MPS 788868
2014 04 26.20430 14 35 25.35 -10 43 52.7   W84 – Cerro Tololo-DECam MPS 788868
2014 04 26.20750 14 35 25.16 -10 43 52.0   W84 – Cerro Tololo-DECam MPS 788868
2014 04 26.21074 14 35 24.97 -10 43 51.2   W84 – Cerro Tololo-DECam MPS 788868
2014 04 26.21387 14 35 24.79 -10 43 50.5   W84 – Cerro Tololo-DECam MPS 788868
2014 04 29.44784 14 32 26.443 -10 31 36.58 19.4 w F51 – Pan-STARRS 1, Haleakala MPS 513558
2014 04 29.46085 14 32 25.677 -10 31 33.62 19.4 w F51 – Pan-STARRS 1, Haleakala MPS 513558
